Location: Sternwarte ZA, Rosenfeld-Brittheim
(48.2889°N, 8.6789°E)
Time: 23:41:04
(UTC+01:00)

ISS - Pass Details

Date: 02 December 2021
Orbit: 413 x 422 km, 51.6° (Epoch: 24 January)

Event Time Altitude Azimuth Distance (km) Brightness Sun altitude
Rises 19:24:58 0° 291° (WNW) 2,384 1.1 -27.8°
Reaches altitude 10° 19:27:07 10° 286° (WNW) 1,513 -0.1 -28.1°
Enters shadow 19:28:21 20° 278° (W) 1,044 -1.1 -28.3°
